"FRM_AIS_EDR_2042.DAT           ",2005-08-17T12:19:44.02 ,"1/0072361178.58044",    0,    0,  196627,"AIS","B1","B1","B0","B0","PISd",0,0,0,0,"B1", 0,15,   0, 0,    0,"AIS","N/A    ","OK ","OK ",    001177.495,    -061.921,    -005.631,    0015.009,    0047.611
"FRM_AIS_EDR_2042.DAT           ",2005-08-17T12:19:51.56 ,"1/0072361186.28107",    0,    1,  196627,"AIS","B1","B1","B0","B0","PISd",0,0,0,0,"B1", 0,15,   0, 0,    0,"AIS","N/A    ","OK ","OK ",    001167.111,    -061.595,    -005.575,    0015.015,    0047.486
"FRM_AIS_EDR_2042.DAT           ",2005-08-17T12:19:59.11 ,"1/0072361193.63707",    0,    2,  196627,"AIS","B1","B1","B0","B0","PISd",0,0,0,0,"B1", 0,15,   0, 0,    0,"AIS","N/A    ","OK ","OK ",    001156.758,    -061.268,    -005.520,    0015.021,    0047.363
"FRM_AIS_EDR_2042.DAT           ",2005-08-17T12:20:06.65 ,"1/0072361201.33770",    0,    3,  196627,"AIS","B1","B1","B0","B0","PISd",0,0,0,0,"B1", 0,15,   0, 0,    0,"AIS","N/A    ","OK ","OK ",    001146.436,    -060.939,    -005.467,    0015.026,    0047.241
"FRM_AIS_EDR_2042.DAT           ",2005-08-17T12:20:14.19 ,"1/0072361209.03833",    0,    4,  196627,"AIS","B1","B1","B0","B0","PISd",0,0,0,0,"B1", 0,15,   0, 0,    0,"AIS","N/A    ","OK ","OK ",    001136.147,    -060.609,    -005.415,    0015.032,    0047.119
"FRM_AIS_EDR_2042.DAT           ",2005-08-17T12:20:21.74 ,"1/0072361216.39433",    0,    5,  196627,"AIS","B1","B1","B0","B0","PISd",0,0,0,0,"B1", 0,15,   0, 0,    0,"AIS","N/A    ","OK ","OK ",    001125.890,    -060.277,    -005.365,    0015.037,    0046.999
"FRM_AIS_EDR_2042.DAT           ",2005-08-17T12:20:29.28 ,"1/0072361224.09496",    0,    6,  196627,"AIS","B1","B1","B0","B0","PISd",0,0,0,0,"B1", 0,15,   0, 0,    0,"AIS","N/A    ","OK ","OK ",    001115.666,    -059.944,    -005.315,    0015.043,    0046.880
"FRM_AIS_EDR_2042.DAT           ",2005-08-17T12:20:36.82 ,"1/0072361231.45095",    0,    7,  196627,"AIS","B1","B1","B0","B0","PISd",0,0,0,0,"B1", 0,15,   0, 0,    0,"AIS","N/A    ","OK ","OK ",    001105.477,    -059.609,    -005.267,    0015.048,    0046.761
"FRM_AIS_EDR_2042.DAT           ",2005-08-17T12:20:44.37 ,"1/0072361239.15159",    0,    8,  196627,"AIS","B1","B1","B0","B0","PISd",0,0,0,0,"B1", 0,15,   0, 0,    0,"AIS","N/A    ","OK ","OK ",    001095.321,    -059.272,    -005.221,    0015.053,    0046.644
"FRM_AIS_EDR_2042.DAT           ",2005-08-17T12:20:51.91 ,"1/0072361246.50758",    0,    9,  196627,"AIS","B1","B1","B0","B0","PISd",0,0,0,0,"B1", 0,15,   0, 0,    0,"AIS","N/A    ","OK ","OK ",    001085.200,    -058.934,    -005.175,    0015.058,    0046.528
"FRM_AIS_EDR_2042.DAT           ",2005-08-17T12:20:59.45 ,"1/0072361254.20821",    0,   10,  196627,"AIS","B1","B1","B0","B0","PISd",0,0,0,0,"B1", 0,15,   0, 0,    0,"AIS","N/A    ","OK ","OK ",    001075.114,    -058.595,    -005.131,    0015.063,    0046.413
"FRM_AIS_EDR_2042.DAT           ",2005-08-17T12:21:06.99 ,"1/0072361261.56421",    0,   11,  196627,"AIS","B1","B1","B0","B0","PISd",0,0,0,0,"B1", 0,15,   0, 0,    0,"AIS","N/A    ","OK ","OK ",    001065.064,    -058.254,    -005.087,    0015.068,    0046.299
"FRM_AIS_EDR_2042.DAT           ",2005-08-17T12:21:14.54 ,"1/0072361269.26484",    0,   12,  196627,"AIS","B1","B1","B0","B0","PISd",0,0,0,0,"B1", 0,15,   0, 0,    0,"AIS","N/A    ","OK ","OK ",    001055.050,    -057.911,    -005.045,    0015.073,    0046.186
"FRM_AIS_EDR_2042.DAT           ",2005-08-17T12:21:22.08 ,"1/0072361276.62083",    0,   13,  196627,"AIS","B1","B1","B0","B0","PISd",0,0,0,0,"B1", 0,15,   0, 0,    0,"AIS","N/A    ","OK ","OK ",    001045.073,    -057.567,    -005.004,    0015.078,    0046.075
"FRM_AIS_EDR_2042.DAT           ",2005-08-17T12:21:29.62 ,"1/0072361284.32147",    0,   14,  196627,"AIS","B1","B1","B0","B0","PISd",0,0,0,0,"B1", 0,15,   0, 0,    0,"AIS","N/A    ","OK ","OK ",    001035.133,    -057.221,    -004.964,    0015.082,    0045.965
"FRM_AIS_EDR_2042.DAT           ",2005-08-17T12:21:37.17 ,"1/0072361292.02210",    0,   15,  196627,"AIS","B1","B1","B0","B0","PISd",0,0,0,0,"B1", 0,15,   0, 0,    0,"AIS","N/A    ","OK ","OK ",    001025.232,    -056.873,    -004.924,    0015.087,    0045.856
"FRM_AIS_EDR_2042.DAT           ",2005-08-17T12:21:44.71 ,"1/0072361299.37809",    0,   16,  196627,"AIS","B1","B1","B0","B0","PISd",0,0,0,0,"B1", 0,15,   0, 0,    0,"AIS","N/A    ","OK ","OK ",    001015.368,    -056.524,    -004.886,    0015.092,    0045.748
"FRM_AIS_EDR_2042.DAT           ",2005-08-17T12:21:52.25 ,"1/0072361307.07873",    0,   17,  196627,"AIS","B1","B1","B0","B0","PISd",0,0,0,0,"B1", 0,15,   0, 0,    0,"AIS","N/A    ","OK ","OK ",    001005.544,    -056.174,    -004.849,    0015.096,    0045.642
"FRM_AIS_EDR_2042.DAT           ",2005-08-17T12:21:59.80 ,"1/0072361314.43472",    0,   18,  196627,"AIS","B1","B1","B0","B0","PISd",0,0,0,0,"B1", 0,15,   0, 0,    0,"AIS","N/A    ","OK ","OK ",    000995.759,    -055.821,    -004.813,    0015.101,    0045.538
"FRM_AIS_EDR_2042.DAT           ",2005-08-17T12:22:07.34 ,"1/0072361322.13535",    0,   19,  196627,"AIS","B1","B1","B0","B0","PISd",0,0,0,0,"B1", 0,15,   0, 0,    0,"AIS","N/A    ","OK ","OK ",    000986.014,    -055.468,    -004.777,    0015.105,    0045.435
"FRM_AIS_EDR_2042.DAT           ",2005-08-17T12:22:14.88 ,"1/0072361329.49135",    0,   20,  196627,"AIS","B1","B1","B0","B0","PISd",0,0,0,0,"B1", 0,15,   0, 0,    0,"AIS","N/A    ","OK ","OK ",    000976.310,    -055.112,    -004.743,    0015.109,    0045.333
"FRM_AIS_EDR_2042.DAT           ",2005-08-17T12:22:22.43 ,"1/0072361337.19198",    0,   21,  196627,"AIS","B1","B1","B0","B0","PISd",0,0,0,0,"B1", 0,15,   0, 0,    0,"AIS","N/A    ","OK ","OK ",    000966.647,    -054.755,    -004.709,    0015.114,    0045.233
"FRM_AIS_EDR_2042.DAT           ",2005-08-17T12:22:29.97 ,"1/0072361344.54797",    0,   22,  196627,"AIS","B1","B1","B0","B0","PISd",0,0,0,0,"B1", 0,15,   0, 0,    0,"AIS","N/A    ","OK ","OK ",    000957.026,    -054.397,    -004.677,    0015.118,    0045.135
"FRM_AIS_EDR_2042.DAT           ",2005-08-17T12:22:37.51 ,"1/0072361352.24861",    0,   23,  196627,"AIS","B1","B1","B0","B0","PISd",0,0,0,0,"B1", 0,15,   0, 0,    0,"AIS","N/A    ","OK ","OK ",    000947.447,    -054.036,    -004.645,    0015.122,    0045.038
"FRM_AIS_EDR_2042.DAT           ",2005-08-17T12:22:45.06 ,"1/0072361359.60460",    0,   24,  196627,"AIS","B1","B1","B0","B0","PISd",0,0,0,0,"B1", 0,15,   0, 0,    0,"AIS","N/A    ","OK ","OK ",    000937.911,    -053.675,    -004.613,    0015.126,    0044.943
"FRM_AIS_EDR_2042.DAT           ",2005-08-17T12:22:52.60 ,"1/0072361367.30523",    0,   25,  196627,"AIS","B1","B1","B0","B0","PISd",0,0,0,0,"B1", 0,15,   0, 0,    0,"AIS","N/A    ","OK ","OK ",    000928.419,    -053.311,    -004.583,    0015.130,    0044.850
"FRM_AIS_EDR_2042.DAT           ",2005-08-17T12:23:00.14 ,"1/0072361375.00587",    0,   26,  196627,"AIS","B1","B1","B0","B0","PISd",0,0,0,0,"B1", 0,15,   0, 0,    0,"AIS","N/A    ","OK ","OK ",    000918.970,    -052.946,    -004.554,    0015.134,    0044.758
"FRM_AIS_EDR_2042.DAT           ",2005-08-17T12:23:07.69 ,"1/0072361382.36186",    0,   27,  196627,"AIS","B1","B1","B0","B0","PISd",0,0,0,0,"B1", 0,15,   0, 0,    0,"AIS","N/A    ","OK ","OK ",    000909.567,    -052.579,    -004.525,    0015.138,    0044.669
"FRM_AIS_EDR_2042.DAT           ",2005-08-17T12:23:15.23 ,"1/0072361390.06249",    0,   28,  196627,"AIS","B1","B1","B0","B0","PISd",0,0,0,0,"B1", 0,15,   0, 0,    0,"AIS","N/A    ","OK ","OK ",    000900.208,    -052.211,    -004.497,    0015.142,    0044.581
"FRM_AIS_EDR_2042.DAT           ",2005-08-17T12:23:22.77 ,"1/0072361397.41849",    0,   29,  196627,"AIS","B1","B1","B0","B0","PISd",0,0,0,0,"B1", 0,15,   0, 0,    0,"AIS","N/A    ","OK ","OK ",    000890.896,    -051.841,    -004.469,    0015.146,    0044.495
"FRM_AIS_EDR_2042.DAT           ",2005-08-17T12:23:30.32 ,"1/0072361405.11912",    0,   30,  196627,"AIS","B1","B1","B0","B0","PISd",0,0,0,0,"B1", 0,15,   0, 0,    0,"AIS","N/A    ","OK ","OK ",    000881.630,    -051.470,    -004.443,    0015.150,    0044.411
"FRM_AIS_EDR_2042.DAT           ",2005-08-17T12:23:37.86 ,"1/0072361412.47511",    0,   31,  196627,"AIS","B1","B1","B0","B0","PISd",0,0,0,0,"B1", 0,15,   0, 0,    0,"AIS","N/A    ","OK ","OK ",    000872.411,    -051.097,    -004.417,    0015.154,    0044.329
"FRM_AIS_EDR_2042.DAT           ",2005-08-17T12:23:45.40 ,"1/0072361420.17575",    0,   32,  196627,"AIS","B1","B1","B0","B0","PISd",0,0,0,0,"B1", 0,15,   0, 0,    0,"AIS","N/A    ","OK ","OK ",    000863.240,    -050.722,    -004.391,    0015.157,    0044.248
"FRM_AIS_EDR_2042.DAT           ",2005-08-17T12:23:52.95 ,"1/0072361427.53174",    0,   33,  196627,"AIS","B1","B1","B0","B0","PISd",0,0,0,0,"B1", 0,15,   0, 0,    0,"AIS","N/A    ","OK ","OK ",    000854.117,    -050.345,    -004.367,    0015.161,    0044.171
"FRM_AIS_EDR_2042.DAT           ",2005-08-17T12:24:00.49 ,"1/0072361435.23237",    0,   34,  196627,"AIS","B1","B1","B0","B0","PISd",0,0,0,0,"B1", 0,15,   0, 0,    0,"AIS","N/A    ","OK ","OK ",    000845.043,    -049.967,    -004.343,    0015.165,    0044.095
"FRM_AIS_EDR_2042.DAT           ",2005-08-17T12:24:08.03 ,"1/0072361442.58837",    0,   35,  196627,"AIS","B1","B1","B0","B0","PISd",0,0,0,0,"B1", 0,15,   0, 0,    0,"AIS","N/A    ","OK ","OK ",    000836.019,    -049.588,    -004.319,    0015.168,    0044.021
"FRM_AIS_EDR_2042.DAT           ",2005-08-17T12:24:15.57 ,"1/0072361450.28900",    0,   36,  196627,"AIS","B1","B1","B0","B0","PISd",0,0,0,0,"B1", 0,15,   0, 0,    0,"AIS","N/A    ","OK ","OK ",    000827.045,    -049.207,    -004.297,    0015.172,    0043.950
"FRM_AIS_EDR_2042.DAT           ",2005-08-17T12:24:23.12 ,"1/0072361457.64499",    0,   37,  196627,"AIS","B1","B1","B0","B0","PISd",0,0,0,0,"B1", 0,15,   0, 0,    0,"AIS","N/A    ","OK ","OK ",    000818.122,    -048.824,    -004.274,    0015.175,    0043.880
"FRM_AIS_EDR_2042.DAT           ",2005-08-17T12:24:30.66 ,"1/0072361465.34563",    0,   38,  196627,"AIS","B1","B1","B0","B0","PISd",0,0,0,0,"B1", 0,15,   0, 0,    0,"AIS","N/A    ","OK ","OK ",    000809.250,    -048.439,    -004.253,    0015.179,    0043.814
"FRM_AIS_EDR_2042.DAT           ",2005-08-17T12:24:38.20 ,"1/0072361473.04626",    0,   39,  196627,"AIS","B1","B1","B0","B0","PISd",0,0,0,0,"B1", 0,15,   0, 0,    0,"AIS","N/A    ","OK ","OK ",    000800.430,    -048.053,    -004.232,    0015.182,    0043.749
"FRM_AIS_EDR_2042.DAT           ",2005-08-17T12:24:45.75 ,"1/0072361480.40225",    0,   40,  196627,"AIS","B1","B1","B0","B0","PISd",0,0,0,0,"B1", 0,15,   0, 0,    0,"AIS","N/A    ","OK ","OK ",    000791.663,    -047.665,    -004.211,    0015.186,    0043.687
"FRM_AIS_EDR_2042.DAT           ",2005-08-17T12:24:53.29 ,"1/0072361488.10289",    0,   41,  196627,"AIS","B1","B1","B0","B0","PISd",0,0,0,0,"B1", 0,15,   0, 0,    0,"AIS","N/A    ","OK ","OK ",    000782.949,    -047.276,    -004.191,    0015.189,    0043.627
"FRM_AIS_EDR_2042.DAT           ",2005-08-17T12:25:00.83 ,"1/0072361495.45888",    0,   42,  196627,"AIS","B1","B1","B0","B0","PISd",0,0,0,0,"B1", 0,15,   0, 0,    0,"AIS","N/A    ","OK ","OK ",    000774.290,    -046.885,    -004.172,    0015.192,    0043.570
"FRM_AIS_EDR_2042.DAT           ",2005-08-17T12:25:08.38 ,"1/0072361503.15951",    0,   43,  196627,"AIS","B1","B1","B0","B0","PISd",0,0,0,0,"B1", 0,15,   0, 0,    0,"AIS","N/A    ","OK ","OK ",    000765.685,    -046.492,    -004.153,    0015.196,    0043.515
"FRM_AIS_EDR_2042.DAT           ",2005-08-17T12:25:15.92 ,"1/0072361510.51551",    0,   44,  196627,"AIS","B1","B1","B0","B0","PISd",0,0,0,0,"B1", 0,15,   0, 0,    0,"AIS","N/A    ","OK ","OK ",    000757.135,    -046.098,    -004.135,    0015.199,    0043.463
"FRM_AIS_EDR_2042.DAT           ",2005-08-17T12:25:23.46 ,"1/0072361518.21614",    0,   45,  196627,"AIS","B1","B1","B0","B0","PISd",0,0,0,0,"B1", 0,15,   0, 0,    0,"AIS","N/A    ","OK ","OK ",    000748.641,    -045.702,    -004.117,    0015.202,    0043.414
"FRM_AIS_EDR_2042.DAT           ",2005-08-17T12:25:31.01 ,"1/0072361525.57213",    0,   46,  196627,"AIS","B1","B1","B0","B0","PISd",0,0,0,0,"B1", 0,15,   0, 0,    0,"AIS","N/A    ","OK ","OK ",    000740.204,    -045.304,    -004.100,    0015.205,    0043.367
"FRM_AIS_EDR_2042.DAT           ",2005-08-17T12:25:38.55 ,"1/0072361533.27277",    0,   47,  196627,"AIS","B1","B1","B0","B0","PISd",0,0,0,0,"B1", 0,15,   0, 0,    0,"AIS","N/A    ","OK ","OK ",    000731.824,    -044.905,    -004.083,    0015.208,    0043.323
"FRM_AIS_EDR_2042.DAT           ",2005-08-17T12:25:46.09 ,"1/0072361540.62876",    0,   48,  196627,"AIS","B1","B1","B0","B0","PISd",0,0,0,0,"B1", 0,15,   0, 0,    0,"AIS","N/A    ","OK ","OK ",    000723.503,    -044.505,    -004.066,    0015.212,    0043.282
"FRM_AIS_EDR_2042.DAT           ",2005-08-17T12:25:53.64 ,"1/0072361548.32939",    0,   49,  196627,"AIS","B1","B1","B0","B0","PISd",0,0,0,0,"B1", 0,15,   0, 0,    0,"AIS","N/A    ","OK ","OK ",    000715.239,    -044.102,    -004.051,    0015.215,    0043.243
"FRM_AIS_EDR_2042.DAT           ",2005-08-17T12:26:01.18 ,"1/0072361556.03003",    0,   50,  196627,"AIS","B1","B1","B0","B0","PISd",0,0,0,0,"B1", 0,15,   0, 0,    0,"AIS","N/A    ","OK ","OK ",    000707.035,    -043.698,    -004.035,    0015.218,    0043.208
"FRM_AIS_EDR_2042.DAT           ",2005-08-17T12:26:08.72 ,"1/0072361563.38602",    0,   51,  196627,"AIS","B1","B1","B0","B0","PISd",0,0,0,0,"B1", 0,15,   0, 0,    0,"AIS","N/A    ","OK ","OK ",    000698.891,    -043.293,    -004.020,    0015.221,    0043.175
"FRM_AIS_EDR_2042.DAT           ",2005-08-17T12:26:16.27 ,"1/0072361571.08665",    0,   52,  196627,"AIS","B1","B1","B0","B0","PISd",0,0,0,0,"B1", 0,15,   0, 0,    0,"AIS","N/A    ","OK ","OK ",    000690.808,    -042.885,    -004.005,    0015.224,    0043.145
"FRM_AIS_EDR_2042.DAT           ",2005-08-17T12:26:23.81 ,"1/0072361578.44265",    0,   53,  196627,"AIS","B1","B1","B0","B0","PISd",0,0,0,0,"B1", 0,15,   0, 0,    0,"AIS","N/A    ","OK ","OK ",    000682.786,    -042.477,    -003.991,    0015.227,    0043.118
"FRM_AIS_EDR_2042.DAT           ",2005-08-17T12:26:31.35 ,"1/0072361586.14328",    0,   54,  196627,"AIS","B1","B1","B0","B0","PISd",0,0,0,0,"B1", 0,15,   0, 0,    0,"AIS","N/A    ","OK ","OK ",    000674.825,    -042.066,    -003.977,    0015.230,    0043.095
"FRM_AIS_EDR_2042.DAT           ",2005-08-17T12:26:38.90 ,"1/0072361593.49927",    0,   55,  196627,"AIS","B1","B1","B0","B0","PISd",0,0,0,0,"B1", 0,15,   0, 0,    0,"AIS","N/A    ","OK ","OK ",    000666.928,    -041.654,    -003.964,    0015.233,    0043.074
"FRM_AIS_EDR_2042.DAT           ",2005-08-17T12:26:46.44 ,"1/0072361601.19991",    0,   56,  196627,"AIS","B1","B1","B0","B0","PISd",0,0,0,0,"B1", 0,15,   0, 0,    0,"AIS","N/A    ","OK ","OK ",    000659.093,    -041.240,    -003.951,    0015.236,    0043.056
"FRM_AIS_EDR_2042.DAT           ",2005-08-17T12:26:53.98 ,"1/0072361608.55590",    0,   57,  196627,"AIS","B1","B1","B0","B0","PISd",0,0,0,0,"B1", 0,15,   0, 0,    0,"AIS","N/A    ","OK ","OK ",    000651.323,    -040.825,    -003.938,    0015.238,    0043.042
"FRM_AIS_EDR_2042.DAT           ",2005-08-17T12:27:01.53 ,"1/0072361616.25653",    0,   58,  196627,"AIS","B1","B1","B0","B0","PISd",0,0,0,0,"B1", 0,15,   0, 0,    0,"AIS","N/A    ","OK ","OK ",    000643.618,    -040.409,    -003.926,    0015.241,    0043.031
"FRM_AIS_EDR_2042.DAT           ",2005-08-17T12:27:09.07 ,"1/0072361623.61253",    0,   59,  196627,"AIS","B1","B1","B0","B0","PISd",0,0,0,0,"B1", 0,15,   0, 0,    0,"AIS","N/A    ","OK ","OK ",    000635.977,    -039.990,    -003.914,    0015.244,    0043.023
"FRM_AIS_EDR_2042.DAT           ",2005-08-17T12:27:16.61 ,"1/0072361631.31316",    0,   60,  196627,"AIS","B1","B1","B0","B0","PISd",0,0,0,0,"B1", 0,15,   0, 0,    0,"AIS","N/A    ","OK ","OK ",    000628.403,    -039.570,    -003.903,    0015.247,    0043.018
"FRM_AIS_EDR_2042.DAT           ",2005-08-17T12:27:24.15 ,"1/0072361639.01379",    0,   61,  196627,"AIS","B1","B1","B0","B0","PISd",0,0,0,0,"B1", 0,15,   0, 0,    0,"AIS","N/A    ","OK ","OK ",    000620.895,    -039.149,    -003.892,    0015.250,    0043.017
"FRM_AIS_EDR_2042.DAT           ",2005-08-17T12:27:31.70 ,"1/0072361646.36979",    0,   62,  196627,"AIS","B1","B1","B0","B0","PISd",0,0,0,0,"B1", 0,15,   0, 0,    0,"AIS","N/A    ","OK ","OK ",    000613.455,    -038.726,    -003.881,    0015.252,    0043.019
"FRM_AIS_EDR_2042.DAT           ",2005-08-17T12:27:39.24 ,"1/0072361654.07042",    0,   63,  196627,"AIS","B1","B1","B0","B0","PISd",0,0,0,0,"B1", 0,15,   0, 0,    0,"AIS","N/A    ","OK ","OK ",    000606.083,    -038.301,    -003.870,    0015.255,    0043.025
"FRM_AIS_EDR_2042.DAT           ",2005-08-17T12:27:46.78 ,"1/0072361661.42641",    0,   64,  196627,"AIS","B1","B1","B0","B0","PISd",0,0,0,0,"B1", 0,15,   0, 0,    0,"AIS","N/A    ","OK ","OK ",    000598.780,    -037.875,    -003.860,    0015.258,    0043.034
"FRM_AIS_EDR_2042.DAT           ",2005-08-17T12:27:54.33 ,"1/0072361669.12705",    0,   65,  196627,"AIS","B1","B1","B0","B0","PISd",0,0,0,0,"B1", 0,15,   0, 0,    0,"AIS","N/A    ","OK ","OK ",    000591.546,    -037.447,    -003.850,    0015.261,    0043.046
"FRM_AIS_EDR_2042.DAT           ",2005-08-17T12:28:01.87 ,"1/0072361676.48304",    0,   66,  196627,"AIS","B1","B1","B0","B0","PISd",0,0,0,0,"B1", 0,15,   0, 0,    0,"AIS","N/A    ","OK ","OK ",    000584.382,    -037.018,    -003.841,    0015.263,    0043.062
"FRM_AIS_EDR_2042.DAT           ",2005-08-17T12:28:09.41 ,"1/0072361684.18367",    0,   67,  196627,"AIS","B1","B1","B0","B0","PISd",0,0,0,0,"B1", 0,15,   0, 0,    0,"AIS","N/A    ","OK ","OK ",    000577.289,    -036.587,    -003.832,    0015.266,    0043.082
"FRM_AIS_EDR_2042.DAT           ",2005-08-17T12:28:16.96 ,"1/0072361691.53966",    0,   68,  196627,"AIS","B1","B1","B0","B0","PISd",0,0,0,0,"B1", 0,15,   0, 0,    0,"AIS","N/A    ","OK ","OK ",    000570.268,    -036.155,    -003.823,    0015.269,    0043.105
"FRM_AIS_EDR_2042.DAT           ",2005-08-17T12:28:24.50 ,"1/0072361699.24030",    0,   69,  196627,"AIS","B1","B1","B0","B0","PISd",0,0,0,0,"B1", 0,15,   0, 0,    0,"AIS","N/A    ","OK ","OK ",    000563.319,    -035.721,    -003.814,    0015.271,    0043.132
"FRM_AIS_EDR_2042.DAT           ",2005-08-17T12:28:32.04 ,"1/0072361706.59629",    0,   70,  196627,"AIS","B1","B1","B0","B0","PISd",0,0,0,0,"B1", 0,15,   0, 0,    0,"AIS","N/A    ","OK ","OK ",    000556.442,    -035.286,    -003.806,    0015.274,    0043.162
"FRM_AIS_EDR_2042.DAT           ",2005-08-17T12:28:39.59 ,"1/0072361714.29692",    0,   71,  196627,"AIS","B1","B1","B0","B0","PISd",0,0,0,0,"B1", 0,15,   0, 0,    0,"AIS","N/A    ","OK ","OK ",    000549.640,    -034.849,    -003.798,    0015.276,    0043.196
"FRM_AIS_EDR_2042.DAT           ",2005-08-17T12:28:47.13 ,"1/0072361721.65292",    0,   72,  196627,"AIS","B1","B1","B0","B0","PISd",0,0,0,0,"B1", 0,15,   0, 0,    0,"AIS","N/A    ","OK ","OK ",    000542.911,    -034.410,    -003.790,    0015.279,    0043.234
"FRM_AIS_EDR_2042.DAT           ",2005-08-17T12:28:54.67 ,"1/0072361729.35355",    0,   73,  196627,"AIS","B1","B1","B0","B0","PISd",0,0,0,0,"B1", 0,15,   0, 0,    0,"AIS","N/A    ","OK ","OK ",    000536.257,    -033.971,    -003.783,    0015.281,    0043.275
"FRM_AIS_EDR_2042.DAT           ",2005-08-17T12:29:02.22 ,"1/0072361737.05418",    0,   74,  196627,"AIS","B1","B1","B0","B0","PISd",0,0,0,0,"B1", 0,15,   0, 0,    0,"AIS","N/A    ","OK ","OK ",    000529.679,    -033.529,    -003.776,    0015.284,    0043.321
"FRM_AIS_EDR_2042.DAT           ",2005-08-17T12:29:09.76 ,"1/0072361744.41018",    0,   75,  196627,"AIS","B1","B1","B0","B0","PISd",0,0,0,0,"B1", 0,15,   0, 0,    0,"AIS","N/A    ","OK ","OK ",    000523.177,    -033.087,    -003.769,    0015.286,    0043.370
"FRM_AIS_EDR_2042.DAT           ",2005-08-17T12:29:17.30 ,"1/0072361752.11081",    0,   76,  196627,"AIS","B1","B1","B0","B0","PISd",0,0,0,0,"B1", 0,15,   0, 0,    0,"AIS","N/A    ","OK ","OK ",    000516.752,    -032.643,    -003.762,    0015.289,    0043.423
"FRM_AIS_EDR_2042.DAT           ",2005-08-17T12:29:24.85 ,"1/0072361759.46680",    0,   77,  196627,"AIS","B1","B1","B0","B0","PISd",0,0,0,0,"B1", 0,15,   0, 0,    0,"AIS","N/A    ","OK ","OK ",    000510.405,    -032.197,    -003.756,    0015.291,    0043.479
"FRM_AIS_EDR_2042.DAT           ",2005-08-17T12:29:32.39 ,"1/0072361767.16744",    0,   78,  196627,"AIS","B1","B1","B0","B0","PISd",0,0,0,0,"B1", 0,15,   0, 0,    0,"AIS","N/A    ","OK ","OK ",    000504.136,    -031.750,    -003.750,    0015.294,    0043.540
"FRM_AIS_EDR_2042.DAT           ",2005-08-17T12:29:39.93 ,"1/0072361774.52343",    0,   79,  196627,"AIS","B1","B1","B0","B0","PISd",0,0,0,0,"B1", 0,15,   0, 0,    0,"AIS","N/A    ","OK ","OK ",    000497.946,    -031.301,    -003.744,    0015.296,    0043.604
"FRM_AIS_EDR_2042.DAT           ",2005-08-17T12:29:47.48 ,"1/0072361782.22406",    0,   80,  196627,"AIS","B1","B1","B0","B0","PISd",0,0,0,0,"B1", 0,15,   0, 0,    0,"AIS","N/A    ","OK ","OK ",    000491.835,    -030.852,    -003.738,    0015.299,    0043.673
"FRM_AIS_EDR_2042.DAT           ",2005-08-17T12:29:55.02 ,"1/0072361789.58006",    0,   81,  196627,"AIS","B1","B1","B0","B0","PISd",0,0,0,0,"B1", 0,15,   0, 0,    0,"AIS","N/A    ","OK ","OK ",    000485.805,    -030.400,    -003.733,    0015.301,    0043.745
"FRM_AIS_EDR_2042.DAT           ",2005-08-17T12:30:02.56 ,"1/0072361797.28069",    0,   82,  196627,"AIS","B1","B1","B0","B0","PISd",0,0,0,0,"B1", 0,15,   0, 0,    0,"AIS","N/A    ","OK ","OK ",    000479.856,    -029.948,    -003.727,    0015.303,    0043.821
"FRM_AIS_EDR_2042.DAT           ",2005-08-17T12:30:10.11 ,"1/0072361804.63668",    0,   83,  196627,"AIS","B1","B1","B0","B0","PISd",0,0,0,0,"B1", 0,15,   0, 0,    0,"AIS","N/A    ","OK ","OK ",    000473.988,    -029.494,    -003.722,    0015.306,    0043.901
"FRM_AIS_EDR_2042.DAT           ",2005-08-17T12:30:17.65 ,"1/0072361812.33732",    0,   84,  196627,"AIS","B1","B1","B0","B0","PISd",0,0,0,0,"B1", 0,15,   0, 0,    0,"AIS","N/A    ","OK ","OK ",    000468.202,    -029.038,    -003.718,    0015.308,    0043.985
"FRM_AIS_EDR_2042.DAT           ",2005-08-17T12:30:25.19 ,"1/0072361820.03795",    0,   85,  196627,"AIS","B1","B1","B0","B0","PISd",0,0,0,0,"B1", 0,15,   0, 0,    0,"AIS","N/A    ","OK ","OK ",    000462.500,    -028.582,    -003.713,    0015.311,    0044.073
"FRM_AIS_EDR_2042.DAT           ",2005-08-17T12:30:32.73 ,"1/0072361827.39394",    0,   86,  196627,"AIS","B1","B1","B0","B0","PISd",0,0,0,0,"B1", 0,15,   0, 0,    0,"AIS","N/A    ","OK ","OK ",    000456.880,    -028.124,    -003.709,    0015.313,    0044.165
"FRM_AIS_EDR_2042.DAT           ",2005-08-17T12:30:40.28 ,"1/0072361835.09458",    0,   87,  196627,"AIS","B1","B1","B0","B0","PISd",0,0,0,0,"B1", 0,15,   0, 0,    0,"AIS","N/A    ","OK ","OK ",    000451.345,    -027.664,    -003.705,    0015.315,    0044.261
"FRM_AIS_EDR_2042.DAT           ",2005-08-17T12:30:47.82 ,"1/0072361842.45057",    0,   88,  196627,"AIS","B1","B1","B0","B0","PISd",0,0,0,0,"B1", 0,15,   0, 0,    0,"AIS","N/A    ","OK ","OK ",    000445.895,    -027.204,    -003.701,    0015.318,    0044.361
"FRM_AIS_EDR_2042.DAT           ",2005-08-17T12:30:55.36 ,"1/0072361850.15120",    0,   89,  196627,"AIS","B1","B1","B0","B0","PISd",0,0,0,0,"B1", 0,15,   0, 0,    0,"AIS","N/A    ","OK ","OK ",    000440.530,    -026.742,    -003.697,    0015.320,    0044.465
"FRM_AIS_EDR_2042.DAT           ",2005-08-17T12:31:02.91 ,"1/0072361857.50720",    0,   90,  196627,"AIS","B1","B1","B0","B0","PISd",0,0,0,0,"B1", 0,15,   0, 0,    0,"AIS","N/A    ","OK ","OK ",    000435.251,    -026.279,    -003.693,    0015.322,    0044.572